Regional Weather Roundup
Issued by NWS

Home | Current Version | Previous Version | Graphics & Text | Print | Product List | Glossary On
Versions: 1 2 3 4 5 6 7 8 9 10 11 12 13 14 15 16 17 18 19 20 21 22 23 24 25 26 27 28 29 30 31 32 33 34 35 36 37 38 39 40 41 42 43 44 45 46 47 48 49 50
582
ASUS44 KLIX 041805
RWRLA
LOUISIANA WEATHER ROUNDUP
NATIONAL WEATHER SERVICE NEW ORLEANS LA
1200 PM CST WED MAR 04 2015

NOTE: "FAIR" INDICATES FEW OR NO CLOUDS BELOW 12,000 FEET WITH NO
      SIGNIFICANT WEATHER AND/OR OBSTRUCTIONS TO VISIBILITY.
      SKY/WX - SKY CONDITION AND SIGNIFICANT WEATHER.
      TMP - AIR TEMPERATURE.    DP   - DEWPOINT TEMPERATURE.
      RH  - RELATIVE HUMIDITY.  PRES - PRESSURE.
      HX  - HEAT INDEX.         WCI  - WIND CHILL INDEX.

*  THESE STATIONS ARE NOT NWS OR FAA STATIONS AND ARE NOT UNDER
   NWS QUALITY CONTROL.

LAZ040-048-061>063-065-066-069-041900-
SOUTHEAST LOUISIANA

CITY           SKY/WX    TMP DP  RH WIND       PRES   REMARKS
N.O. AUDUBON   NOT AVBL
N.O. INTL ARPT PTSUNNY   80  66  62 S18G24    29.97F
6HR MIN TEMP:  68; 6HR MAX TEMP:  81; 6HR PCP: TRACE;

N.O. LAKEFRONT CLOUDY    78  64  61 SW13      29.98F
6HR MIN TEMP:  64; 6HR MAX TEMP:  83;

SLIDELL        PTSUNNY   79  69  71 S9        29.98F
6HR MIN TEMP:  67; 6HR MAX TEMP:  80; 6HR PCP:  0.01;

BATON ROUGE    PTSUNNY   78  65  63 SW15G24   29.95F
6HR MIN TEMP:  68; 6HR MAX TEMP:  80;

BOOTHVILLE     PTSUNNY   76  69  79 S14       30.00F
6HR MIN TEMP:  64; 6HR MAX TEMP:  77;

BELLE CHASSE   PTSUNNY   80  68  66 S17       29.97F
6HR MIN TEMP:  66; 6HR MAX TEMP:  81; 6HR PCP: TRACE;

BOGALUSA*        N/A     80  66  61 SW8G18    29.99F
6HR MIN TEMP:  69; 6HR MAX TEMP:  81; 6HR PCP:  0.01;

GALLIANO*      MOCLDY    83  70  64 S15G23    29.99F
6HR MIN TEMP:  64; 6HR MAX TEMP:  83;

NEW ROADS*     MOCLDY    80  65  60 S13G22    29.95F
6HR MIN TEMP:  66; 6HR MAX TEMP:  81;

GONZALES*      FAIR      81  66  60 S16G23    29.96F
6HR MIN TEMP:  67; 6HR MAX TEMP:  81;

HAMMOND*       FAIR      82  64  54 S16G23    29.98F
HOUMA*         PTSUNNY   81  70  69 S17       29.98F
PORT FOURCHON* CLEAR     77  70  78 S9        30.02F

$$

LAZ041-044-053-054-041900-
SOUTHWEST LOUISIANA

CITY           SKY/WX    TMP DP  RH WIND       PRES   REMARKS
LAKE CHARLES   CLOUDY    77  68  73 S15G23    29.92F
6HR MIN TEMP:  64; 6HR MAX TEMP:  78;

LAFAYETTE      PTSUNNY   79  68  69 S16G23    29.95F
6HR MIN TEMP:  66; 6HR MAX TEMP:  79;

PATTERSON      PTSUNNY   81  70  69 S20G29    29.97F
6HR MIN TEMP:  64; 6HR MAX TEMP:  81;

SALT POINT       N/A     77  70  79 S8        29.95F
6HR MIN TEMP:  64; 6HR MAX TEMP:  77;

NEW IBERIA     PTSUNNY   80  69  69 S21G26    29.96F
6HR MIN TEMP:  63; 6HR MAX TEMP:  80;

CHENAULT AIRPK PTSUNNY   79  68  69 S16G24    29.93

$$

LAZ027-028-041900-
CENTRAL LOUISIANA

CITY           SKY/WX    TMP DP  RH WIND       PRES   REMARKS
FORT POLK      PTSUNNY   75  66  74 SW13G23   29.92F
6HR MIN TEMP:  68; 6HR MAX TEMP:  75;

ALEXANDRIA INT PTSUNNY   77  67  71 S17G23    29.92F
6HR MIN TEMP:  64; 6HR MAX TEMP:  77; 6HR PCP: TRACE;

ALEXANDRIA     CLOUDY    76  66  71 SW7       29.93F
6HR MIN TEMP:  69; 6HR MAX TEMP:  78; 6HR PCP:  0.01;


$$

LAZ001-002-041900-
NORTHWEST LOUISIANA

CITY           SKY/WX    TMP DP  RH WIND       PRES   REMARKS
SHREVEPORT     CLOUDY    73  66  78 S10       29.86F
6HR MIN TEMP:  64; 6HR MAX TEMP:  73;

BARKSDALE AFB  CLOUDY    73  67  81 SW9G18    29.86F
6HR MIN TEMP:  62; 6HR MAX TEMP:  73;

DTN SHREVEPORT CLOUDY    73  65  75 S16       29.86F
6HR MIN TEMP:  62; 6HR MAX TEMP:  73; 6HR PCP: TRACE;


$$

LAZ014-016-041900-
NORTHEAST LOUISIANA

CITY           SKY/WX    TMP DP  RH WIND       PRES   REMARKS
MONROE         PTSUNNY   79  66  64 SW20G26   29.88F
6HR MIN TEMP:  65; 6HR MAX TEMP:  79;

TALLULAH       FAIR      80  65  59 SW13G20   29.91F
6HR MIN TEMP:  65; 6HR MAX TEMP:  80;


$$




USA.gov is the U.S. government's official web portal to all federal, state and local government web resources and services.